Location: ??????????
(54.8537°N, 38.8755°E)
Time: 01:15:41
(UTC+00:00)

Tiros 1 - Pass Details

Date: 22 September 2024
Orbit: 623 x 654 km, 48.4° (Epoch: 15 October)

Event Time Altitude Azimuth Distance (km) Brightness Sun altitude
Rises 12:32:41 0° 248° (WSW) 2,897 11.9 22.2°
Reaches altitude 10° 12:35:07 10° 240° (WSW) 1,991 11.8 21.9°
Maximum altitude 12:39:18 36° 174° (S) 987 8.7 21.4°
Drops below altitude 10° 12:43:30 10° 108° (ESE) 1,998 9.4 20.9°
Sets 12:45:57 0° 100° (E) 2,909 10.1 20.6°
